Bartlesville, OK

7:24 PM CDT on August 21, 2017 (GMT -0500)
Bartlesville Municipal

Weather History for KBVO - December, 2011

Change the Weather History Date:

Thursday, December 22, 2011

  Actual Average Record
Temperature  
Mean Temperature 35 °F -  
Max Temperature 42 °F 45 °F 71 °F (1979)
Min Temperature 28 °F 23 °F -12 °F (1989)
Degree Days  
Heating Degree Days 30    
Moisture  
Dew Point 31 °F    
Average Humidity 86    
Maximum Humidity 100    
Minimum Humidity 73    
Precipitation  
Precipitation 0.00 in - - ()
Sea Level Pressure  
Sea Level Pressure 30.18 in    
Wind  
Wind Speed 6 mph (North)    
Max Wind Speed 21 mph    
Max Gust Speed 25 mph    
Visibility 8 miles    
Events Snow    
Averages and records for this station are not official NWS values.
T = Trace of Precipitation, MM = Missing Value Source: NWS Daily Summary

Daily Weather History Graph

Daily Weather History Graph

Search for Another Location

Airport or City:

Trip Planner

Search our weather history database for the weather conditions in past years. The results will help you decide how hot, cold, wet, or windy it might be!

Date:

Astronomy

Dec. 22, 2011 Rise Set
Actual Time 7:33 AM CST 5:11 PM CST
Civil Twilight 7:04 AM CST 5:40 PM CST
Nautical Twilight 6:31 AM CST 6:13 PM CST
Astronomical Twilight 6:00 AM CST 6:44 PM CST
Moon 5:18 AM CST 3:23 PM CST
Length of Visible Light 10h 36m
Length of Day
9h 38m
Waning Crescent, 5% of the Moon is Illuminated
Dec 22
Waning Crescent
Dec 24
New
Jan 1
First Quarter
Jan 9
Full
Jan 16
Last Quarter

Hourly Weather History & Observations

Time (CST) Temp. Windchill Dew Point Humidity Pressure Visibility Wind Dir Wind Speed Gust Speed Precip Events Conditions
12:53 AM 28.0 °F - 27.0 °F 96% 29.98 in 6.0 mi Calm Calm - N/A   Clear
1:53 AM 28.0 °F 24.2 °F 27.0 °F 96% 29.98 in 7.0 mi South 3.5 mph - N/A   Clear
2:53 AM 28.0 °F - 27.0 °F 96% 29.97 in 7.0 mi Calm Calm - N/A   Clear
3:53 AM 30.0 °F - 30.0 °F 100% 29.96 in 5.0 mi Calm Calm - N/A   Clear
4:53 AM 30.9 °F - 30.9 °F 100% 29.97 in 5.0 mi Calm Calm - N/A   Clear
5:53 AM 30.9 °F - 30.0 °F 96% 29.99 in 4.0 mi Calm Calm - N/A   Scattered Clouds
8:53 AM 36.0 °F - 35.1 °F 97% 30.09 in 6.0 mi Calm Calm - N/A   Overcast
9:53 AM 39.9 °F 35.1 °F 36.0 °F 86% 30.14 in 8.0 mi NNE 6.9 mph - N/A   Scattered Clouds
10:20 AM 42.8 °F 36.2 °F 37.4 °F 81% 30.16 in 8.0 mi NNE 12.7 mph - N/A   Mostly Cloudy
10:51 AM 41.0 °F 35.2 °F 37.4 °F 87% 30.17 in 9.0 mi NNE 9.2 mph 17.3 mph N/A   Overcast
10:53 AM 42.1 °F 35.2 °F 37.0 °F 82% 30.18 in 9.0 mi NNE 12.7 mph 17.3 mph N/A   Overcast
11:01 AM 41.0 °F 33.9 °F 35.6 °F 81% 30.18 in 10.0 mi NNE 12.7 mph 19.6 mph N/A   Overcast
11:53 AM 41.0 °F 33.5 °F 35.1 °F 79% 30.18 in 10.0 mi North 13.8 mph - N/A   Overcast
12:42 PM 39.2 °F 30.8 °F 33.8 °F 81% 30.17 in 10.0 mi North 15.0 mph 23.0 mph N/A   Overcast
12:53 PM 41.0 °F 33.1 °F 34.0 °F 76% 30.18 in 10.0 mi North 15.0 mph 20.7 mph N/A   Overcast
1:26 PM 39.2 °F 32.5 °F 32.0 °F 75% 30.17 in 10.0 mi North 10.4 mph 24.2 mph N/A   Overcast
1:53 PM 37.9 °F 28.9 °F 32.0 °F 79% 30.19 in 9.0 mi North 16.1 mph 23.0 mph N/A   Overcast
2:53 PM 36.0 °F 25.0 °F 30.9 °F 82% 30.21 in 10.0 mi North 20.7 mph 25.3 mph N/A   Overcast
3:53 PM 35.1 °F 24.8 °F 32.0 °F 89% 30.23 in 6.0 mi North 17.3 mph 24.2 mph 0.00 in Snow Light Snow
4:53 PM 34.0 °F 26.0 °F 32.0 °F 92% 30.27 in 6.0 mi North 10.4 mph 18.4 mph 0.00 in Snow Light Snow
6:34 PM 33.8 °F 25.8 °F 30.2 °F 87% 30.31 in 4.0 mi North 10.4 mph 20.7 mph 0.00 in Snow Light Snow
6:53 PM 33.1 °F 26.1 °F 30.9 °F 92% 30.33 in 4.0 mi North 8.1 mph 17.3 mph 0.00 in Snow Light Snow
7:53 PM 33.1 °F 26.9 °F 30.0 °F 89% 30.35 in 7.0 mi North 6.9 mph 17.3 mph 0.00 in Snow Light Snow
8:53 PM 32.0 °F 23.0 °F 27.0 °F 82% 30.38 in 10.0 mi North 11.5 mph 18.4 mph 0.00 in   Overcast
9:53 PM 32.0 °F 22.5 °F 25.0 °F 75% 30.39 in 10.0 mi North 12.7 mph 19.6 mph N/A   Overcast
10:44 PM 32.0 °F 22.5 °F 24.8 °F 75% 30.40 in 10.0 mi North 12.7 mph - N/A   Overcast
11:53 PM 32.0 °F 23.6 °F 24.1 °F 73% 30.42 in 10.0 mi North 10.4 mph - N/A   Overcast